Content
SEND FEEDBACK

Daily
Averages
Monthly
Summary
United States of America

CARSON CITY, NEVADA


Home > North America > United States > Nevada
Elevation: 4742 feet     Latitude: 39 09N     Longitude: 119 46W

WEATHER
 
SELECT A DAY
Number of Records: 93,011;   Date Range: 7/14/10 - 8/29/14
 
SHARE

PRINT THIS DATA

[ ← Previous Day ]
WEATHER ALMANAC - APRIL 4, 2013
[ Next Day → ]
[ °C ]   °F
Weather ElementAverageHighLow
Temperature52.5 °F62.6 °F (1:55 pm)41 °F (4:35 am)
Dewpoint31.3 °F37.4 °F (7:35 pm)24.8 °F (3:55 am)
Humidity45.6 %62 % (7:35 pm)27 % (1:55 pm)
Barometer30.04 in30.09 in (11:55 pm)29.99 in (6:55 am)
Wind Speed8.6 mph17.3 mph (2:15 pm)
Wind Gust29.9 mph (2:15 pm)
Weather ElementAverage
Visibility10 mi
Wind DirectionSSW (196.7 °)

Weather ElementTotal
Precipitation---
Heating Degree Days13.2 (Base 65)
Growing Degree Days1.8 (Base 50)
Averaged from 69 records on April 4, 2013
WEATHER CONDITIONS BREAKOUT
WIND DIRECTION BREAKOUT
WEATHER BY HOUR - APRIL 4, 2013
[ °C ]   °F
Local TimeTemperatureDewpointHumidityBarometerVisibilityWind DirectionWind SpeedGust SpeedPrecipitationEventsConditions
12:35 AM46.4 °F32.0 °F57 %30.07 in10.0 miCalmClear
12:55 AM46.4 °F32.0 °F57 %30.07 in10.0 miCalmClear
1:15 AM48.2 °F32.0 °F54 %30.07 in10.0 miWest (260°)3.5 mphClear
1:35 AM46.4 °F30.2 °F53 %30.07 in10.0 miWNW (300°)3.5 mphClear
1:55 AM46.4 °F28.4 °F50 %30.07 in10.0 miNNW (340°)8.1 mphClear
2:15 AM48.2 °F28.4 °F46 %30.06 in10.0 miNNW (330°)4.6 mphClear
2:35 AM48.2 °F26.6 °F43 %30.05 in10.0 miNNW (340°)8.1 mphClear
2:55 AM48.2 °F26.6 °F43 %30.04 in10.0 miWNW (300°)3.5 mphClear
3:15 AM46.4 °F26.6 °F46 %30.03 in10.0 miCalmClear
3:35 AM46.4 °F26.6 °F46 %30.03 in10.0 miWNW (300°)4.6 mphClear
3:55 AM46.4 °F24.8 °F43 %30.03 in10.0 miNW (320°)5.8 mphClear
4:15 AM44.6 °F26.6 °F49 %30.02 in10.0 miCalmClear
4:35 AM41.0 °F26.6 °F57 %30.02 in10.0 miCalmClear
4:55 AM44.6 °F28.4 °F53 %30.01 in10.0 miCalmClear
5:15 AM44.6 °F28.4 °F53 %30.00 in10.0 miCalmClear
5:35 AM44.6 °F28.4 °F53 %30.00 in10.0 miCalmClear
5:55 AM42.8 °F30.2 °F61 %30.00 in10.0 miNE (40°)3.5 mphClear
6:15 AM44.6 °F28.4 °F53 %30.00 in10.0 miCalmClear
6:35 AM44.6 °F30.2 °F57 %30.00 in10.0 miCalmScattered Clouds
6:55 AM46.4 °F26.6 °F46 %29.99 in10.0 miCalmScattered Clouds
7:15 AM50.0 °F26.6 °F40 %30.00 in10.0 miCalmPartly Cloudy
7:35 AM51.8 °F26.6 °F38 %30.01 in10.0 miSSE (160°)5.8 mphClear
7:55 AM55.4 °F26.6 °F33 %30.00 in10.0 miSW (220°)12.7 mph24.2 mphScattered Clouds
8:15 AM55.4 °F28.4 °F36 %30.00 in10.0 miSouth (180°)6.9 mph20.7 mphPartly Cloudy
8:35 AM57.2 °F32.0 °F38 %30.01 in10.0 miSSW (200°)12.7 mph24.2 mphScattered Clouds
8:55 AM55.4 °F32.0 °F41 %30.02 in10.0 miSSW (200°)12.7 mph23.0 mphMostly Cloudy
9:35 AM55.4 °F35.6 °F47 %30.04 in10.0 miSW (230°)11.5 mph19.6 mphOvercast
9:55 AM55.4 °F35.6 °F47 %30.05 in10.0 miWSW (240°)11.5 mph19.6 mphMostly Cloudy
10:15 AM55.4 °F35.6 °F47 %30.05 in10.0 miSW (230°)13.8 mph23.0 mphScattered Clouds
10:35 AM57.2 °F35.6 °F44 %30.06 in10.0 miSW (230°)10.4 mph20.7 mphScattered Clouds
10:55 AM55.4 °F35.6 °F47 %30.06 in10.0 miSW (220°)8.1 mph23.0 mphOvercast
11:15 AM57.2 °F33.8 °F41 %30.06 in10.0 miSW (230°)16.1 mph20.7 mphMostly Cloudy
11:35 AM57.2 °F33.8 °F41 %30.05 in10.0 miWSW (240°)12.7 mph21.9 mphMostly Cloudy
11:55 AM57.2 °F33.8 °F41 %30.04 in10.0 miSouth (190°)11.5 mph21.9 mphOvercast
12:15 PM59.0 °F32.0 °F36 %30.04 in10.0 miSSW (200°)13.8 mph26.5 mphMostly Cloudy
12:35 PM60.8 °F32.0 °F34 %30.04 in10.0 miSouth (190°)11.5 mph25.3 mphScattered Clouds
12:55 PM60.8 °F32.0 °F34 %30.03 in10.0 miSSW (200°)9.2 mph26.5 mphPartly Cloudy
1:15 PM60.8 °F28.4 °F29 %30.03 in10.0 miSW (230°)16.1 mph26.5 mphClear
1:35 PM60.8 °F28.4 °F29 %30.02 in10.0 miSW (220°)13.8 mph26.5 mphClear
1:55 PM62.6 °F28.4 °F27 %30.02 in10.0 miSW (220°)16.1 mph27.6 mphClear
2:15 PM62.6 °F28.4 °F27 %30.02 in10.0 miWSW (240°)17.3 mph29.9 mphClear
2:35 PM60.8 °F28.4 °F29 %30.02 in10.0 miSW (230°)13.8 mph26.5 mphClear
2:55 PM62.6 °F32.0 °F32 %30.02 in10.0 miSSW (210°)11.5 mph18.4 mphScattered Clouds
3:15 PM60.8 °F32.0 °F34 %30.02 in10.0 miWest (260°)11.5 mph21.9 mphMostly Cloudy
3:35 PM59.0 °F32.0 °F36 %30.02 in10.0 miSSW (210°)9.2 mph17.3 mphOvercast
3:55 PM59.0 °F32.0 °F36 %30.02 in10.0 miWSW (240°)9.2 mph24.2 mphOvercast
4:15 PM59.0 °F32.0 °F36 %30.02 in10.0 miSW (220°)9.2 mph18.4 mphOvercast
4:35 PM59.0 °F32.0 °F36 %30.02 in10.0 miWSW (250°)9.2 mph17.3 mphMostly Cloudy
4:55 PM59.0 °F32.0 °F36 %30.02 in10.0 miWSW (240°)10.4 mph16.1 mphOvercast
5:15 PM57.2 °F32.0 °F38 %30.03 in10.0 miWSW (250°)17.3 mph26.5 mphOvercast
5:35 PM57.2 °F32.0 °F38 %30.02 in10.0 miWSW (250°)16.1 mph24.2 mphMostly Cloudy
5:55 PM57.2 °F32.0 °F38 %30.02 in10.0 miWest (260°)13.8 mph24.2 mphOvercast
6:35 PM55.4 °F32.0 °F41 %30.02 in10.0 miWSW (250°)10.4 mph17.3 mphOvercast
6:55 PM55.4 °F35.6 °F47 %30.02 in10.0 miWest (270°)15.0 mph20.7 mphOvercast
7:15 PM53.6 °F35.6 °F51 %30.03 in10.0 miWest (260°)8.1 mphOvercast
7:35 PM50.0 °F37.4 °F62 %30.03 in10.0 miWSW (250°)9.2 mph18.4 mphOvercast
7:55 PM50.0 °F35.6 °F58 %30.04 in10.0 miWest (260°)16.1 mph20.7 mphOvercast
8:15 PM50.0 °F35.6 °F58 %30.05 in10.0 miWest (260°)9.2 mph19.6 mphOvercast
8:35 PM50.0 °F35.6 °F58 %30.06 in10.0 miWSW (240°)9.2 mphOvercast
8:55 PM50.0 °F35.6 °F58 %30.06 in10.0 miWest (260°)13.8 mph18.4 mphOvercast
9:15 PM50.0 °F35.6 °F58 %30.06 in10.0 miWSW (250°)10.4 mphOvercast
9:35 PM50.0 °F35.6 °F58 %30.07 in10.0 miSW (230°)10.4 mph20.7 mphOvercast
9:55 PM48.2 °F33.8 °F58 %30.06 in10.0 miSW (230°)9.2 mphScattered Clouds
10:15 PM48.2 °F33.8 °F58 %30.07 in10.0 miSW (230°)9.2 mphClear
10:35 PM48.2 °F32.0 °F54 %30.07 in10.0 miSW (230°)4.6 mphClear
10:55 PM48.2 °F33.8 °F58 %30.07 in10.0 miSW (220°)5.8 mphClear
11:15 PM48.2 °F32.0 °F54 %30.07 in10.0 miWSW (240°)9.2 mph17.3 mphClear
11:35 PM48.2 °F32.0 °F54 %30.08 in10.0 miWSW (240°)11.5 mph18.4 mphPartly Cloudy
11:55 PM48.2 °F32.0 °F54 %30.09 in10.0 miSW (230°)12.7 mph19.6 mphMostly Cloudy
Hourly data recorded from KCXP, located miles away from Carson City, Nevada







STORIES FROM OUR PARTNERS